Time,TemperatureF,DewpointF,PressureIn,WindDirection,WindDirectionDegrees,WindSpeedMPH,WindSpeedGustMPH,Humidity,HourlyPrecipIn,Conditions,Clouds,dailyrainin,SoftwareType,DateUTC
2013-10-27 01:52:00,35.0,-99.9,29.69,SW,225,4.0,11.0,0,-99.99,,,0.00,,2013-10-27 05:52:00,
2013-10-27 02:01:00,35.0,-99.9,29.69,SW,225,4.0,11.0,0,-99.99,,,0.00,,2013-10-27 06:01:00,
2013-10-27 02:53:00,35.0,-99.9,29.69,SSW,202,1.0,11.0,0,-99.99,,,0.00,,2013-10-27 06:53:00,
2013-10-27 03:02:00,35.0,-99.9,29.69,SSW,202,1.0,11.0,0,-99.99,,,0.00,,2013-10-27 07:02:00,
2013-10-27 03:03:00,35.0,-99.9,29.67,West,270,3.0,9.0,0,-99.99,,,0.00,,2013-10-27 07:03:00,
2013-10-27 03:53:00,35.0,-99.9,29.67,West,270,3.0,9.0,0,-99.99,,,0.00,,2013-10-27 07:53:00,
2013-10-27 04:42:00,36.0,-99.9,29.66,SW,225,1.0,10.0,0,-99.99,,,0.00,,2013-10-27 08:42:00,
2013-10-27 04:52:00,36.0,-99.9,29.66,SW,225,1.0,10.0,0,-99.99,,,0.00,,2013-10-27 08:52:00,
2013-10-27 05:02:00,36.0,-99.9,29.66,SW,225,1.0,10.0,0,-99.99,,,0.00,,2013-10-27 09:02:00,
2013-10-27 05:03:00,35.0,-99.9,29.65,WNW,292,0.0,4.0,0,-99.99,,,0.00,,2013-10-27 09:03:00,
2013-10-27 05:43:00,35.0,-99.9,29.65,WNW,292,0.0,4.0,0,-99.99,,,0.00,,2013-10-27 09:43:00,
2013-10-27 05:54:00,35.0,-99.9,29.65,WNW,292,0.0,4.0,0,-99.99,,,0.00,,2013-10-27 09:54:00,
2013-10-27 06:03:00,36.0,-99.9,29.65,NW,315,0.0,7.0,0,-99.99,,,0.00,,2013-10-27 10:03:00,
2013-10-27 06:53:00,36.0,-99.9,29.65,NW,315,0.0,7.0,0,-99.99,,,0.00,,2013-10-27 10:53:00,
2013-10-27 07:42:00,36.0,-99.9,29.65,ENE,67,3.0,5.0,0,-99.99,,,0.00,,2013-10-27 11:42:00,
2013-10-27 07:52:00,36.0,-99.9,29.65,ENE,67,3.0,5.0,0,-99.99,,,0.00,,2013-10-27 11:52:00,
2013-10-27 08:01:00,36.0,-99.9,29.65,ENE,67,3.0,5.0,0,-99.99,,,0.00,,2013-10-27 12:01:00,
2013-10-27 08:52:00,36.0,-99.9,29.66,NNE,22,3.0,4.0,0,-99.99,,,0.00,,2013-10-27 12:52:00,
2013-10-27 09:02:00,36.0,-99.9,29.66,NNE,22,3.0,4.0,0,-99.99,,,0.00,,2013-10-27 13:02:00,
2013-10-27 09:52:00,37.0,-99.9,29.66,NNE,22,2.0,8.0,0,-99.99,,,0.00,,2013-10-27 13:52:00,
2013-10-27 10:02:00,37.0,-99.9,29.66,NNE,22,2.0,8.0,0,-99.99,,,0.00,,2013-10-27 14:02:00,
2013-10-27 10:42:00,38.0,-99.9,29.66,West,270,3.0,7.0,0,-99.99,,,0.00,,2013-10-27 14:42:00,
2013-10-27 10:52:00,38.0,-99.9,29.66,West,270,3.0,7.0,0,-99.99,,,0.00,,2013-10-27 14:52:00,
2013-10-27 11:01:00,38.0,-99.9,29.66,West,270,3.0,7.0,0,-99.99,,,0.00,,2013-10-27 15:01:00,
2013-10-27 11:03:00,39.0,-99.9,29.66,WSW,247,5.0,10.0,0,-99.99,,,0.00,,2013-10-27 15:03:00,
2013-10-27 11:54:00,39.0,-99.9,29.66,WSW,247,5.0,10.0,0,-99.99,,,0.00,,2013-10-27 15:54:00,
2013-10-27 12:03:00,40.0,-99.9,29.65,SW,225,4.0,10.0,0,-99.99,,,0.00,,2013-10-27 16:03:00,
2013-10-27 12:54:00,40.0,-99.9,29.65,SW,225,4.0,10.0,0,-99.99,,,0.00,,2013-10-27 16:54:00,
2013-10-27 13:53:00,41.0,-99.9,29.64,NW,315,4.0,13.0,0,-99.99,,,0.00,,2013-10-27 17:53:00,
2013-10-27 14:02:00,41.0,-99.9,29.64,NW,315,4.0,13.0,0,-99.99,,,0.00,,2013-10-27 18:02:00,
2013-10-27 14:53:00,43.0,-99.9,29.63,WSW,247,10.0,16.0,0,-99.99,,,0.00,,2013-10-27 18:53:00,
2013-10-27 15:02:00,43.0,-99.9,29.63,WSW,247,10.0,16.0,0,-99.99,,,0.00,,2013-10-27 19:02:00,
2013-10-27 15:42:00,43.0,-99.9,29.63,WSW,247,10.0,17.0,0,-99.99,,,0.00,,2013-10-27 19:42:00,
2013-10-27 15:52:00,43.0,-99.9,29.63,WSW,247,10.0,17.0,0,-99.99,,,0.00,,2013-10-27 19:52:00,
2013-10-27 16:02:00,43.0,-99.9,29.63,WSW,247,10.0,17.0,0,-99.99,,,0.00,,2013-10-27 20:02:00,
2013-10-27 16:52:00,43.0,-99.9,29.65,West,270,4.0,13.0,0,-99.99,,,0.00,,2013-10-27 20:52:00,
2013-10-27 17:02:00,43.0,-99.9,29.65,West,270,4.0,13.0,0,-99.99,,,0.00,,2013-10-27 21:02:00,
2013-10-27 17:03:00,42.0,-99.9,29.66,WNW,292,4.0,10.0,0,-99.99,,,0.00,,2013-10-27 21:03:00,
2013-10-27 17:54:00,42.0,-99.9,29.66,WNW,292,4.0,10.0,0,-99.99,,,0.00,,2013-10-27 21:54:00,
2013-10-27 18:03:00,41.0,-99.9,29.67,West,270,5.0,10.0,0,-99.99,,,-99.99,,2013-10-27 22:03:00,
2013-10-27 18:54:00,41.0,-99.9,29.67,West,270,5.0,10.0,0,-99.99,,,-99.99,,2013-10-27 22:54:00,
2013-10-27 19:52:00,40.0,-99.9,29.69,WNW,292,7.0,18.0,0,-99.99,,,0.00,,2013-10-27 23:52:00,
2013-10-27 20:02:00,40.0,-99.9,29.69,WNW,292,7.0,18.0,0,-99.99,,,0.00,,2013-10-28 00:02:00,
2013-10-27 20:52:00,39.0,-99.9,29.70,WNW,292,10.0,16.0,0,-99.99,,,0.00,,2013-10-28 00:52:00,
2013-10-27 21:02:00,39.0,-99.9,29.70,WNW,292,10.0,16.0,0,-99.99,,,0.00,,2013-10-28 01:02:00,
2013-10-27 21:52:00,39.0,-99.9,29.72,NNW,337,7.0,16.0,0,-99.99,,,0.00,,2013-10-28 01:52:00,
2013-10-27 22:02:00,39.0,-99.9,29.72,NNW,337,7.0,16.0,0,-99.99,,,0.00,,2013-10-28 02:02:00,
2013-10-27 22:03:00,36.0,-99.9,29.74,NW,315,6.0,19.0,0,-99.99,,,0.00,,2013-10-28 02:03:00,
2013-10-27 22:53:00,36.0,-99.9,29.74,NW,315,6.0,19.0,0,-99.99,,,0.00,,2013-10-28 02:53:00,
2013-10-27 23:03:00,35.0,-99.9,29.76,West,270,3.0,10.0,0,-99.99,,,0.00,,2013-10-28 03:03:00,
2013-10-27 23:54:00,35.0,-99.9,29.76,West,270,3.0,10.0,0,-99.99,,,0.00,,2013-10-28 03:54:00,